Home > Weather > Istanbul > Past weeks

Flag for Turkey Weather for the Past 2 Weeks in Istanbul, Turkey

Now
54 °F

Sunny.


Feels Like: 49 °F
Forecast: 49 / 56 °F
Wind: 14 mph from Southwest

Location: Istanbul Ataturk Airport

Current Time: Feb 10, 2016 at 4:04:16 PM

Latest Report: Feb 10, 2016 at 3:20 PM


Visibility: 10 mi

Pressure: 29.89 "Hg

Humidity: 67%

Dew point: 43 °F

Location of IstanbulLocation

Historic Weather in Istanbul — Graph

°F

Istanbul Temperature Yesterday

Maximum temperature yesterday: 48 °F (at 1:20 PM)
Minimum temperature yesterday: 37 °F (at 12:20 AM)
Average temperature yesterday: 44 °F

High & Low Weather Summary for the Past Weeks

 TemperatureHumidityPressure
High59 °F (Feb 3, 1:50 PM)93% (Jan 26, 2:20 PM)30.48 "Hg (Jan 26, 2:20 PM)
Low34 °F (Jan 26, 3:50 PM)40% (Feb 7, 1:50 PM)29.83 "Hg (Feb 5, 6:20 AM)
Average47 °F72%30.23 "Hg
* Reported Jan 26 2:20 PM — Feb 10 2:50 PM, Istanbul, Weather by CustomWeather, © 2016

Note: Actual official high and low records may vary slightly from our data, if they occured in-between our weather recording intervals... More about our weather records

Advertising

Istanbul Weather History for the Previous 24 Hours

 ConditionsComfort  
Time TempWeatherWind HumidityBarometerVisibility
2:50 PM
Wed, Feb 10
54 °FSunny.14 mph67%29.89 "Hg10 mi
2:20 PM54 °FSunny.14 mph67%29.89 "Hg10 mi
1:50 PM54 °FSunny.20 mph63%29.89 "Hg10 mi
1:20 PM54 °FSunny.16 mph63%29.92 "Hg10 mi
12:50 PM54 °FSunny.16 mph63%29.92 "Hg10 mi
12:20 PM54 °FSunny.16 mph58%29.95 "Hg10 mi
11:50 AM52 °FSunny.14 mph62%29.95 "Hg10 mi
11:20 AM52 °FSunny.13 mph58%29.98 "Hg10 mi
10:50 AM52 °FSunny.13 mph58%29.98 "Hg10 mi
10:20 AM52 °FSunny.13 mph62%29.98 "Hg10 mi
9:50 AM52 °FPassing clouds.9 mph62%30.01 "HgN/A
9:20 AM50 °FSunny.10 mph67%30.01 "Hg10 mi
8:50 AM48 °FSunny.14 mph71%30.01 "Hg10 mi
8:20 AM48 °FSunny.12 mph71%30.01 "Hg10 mi
7:50 AM46 °FSunny.10 mph76%30.04 "Hg10 mi
6:50 AM46 °FClear.12 mph71%30.04 "Hg10 mi
6:20 AM46 °FClear.12 mph71%30.04 "Hg10 mi
5:50 AM46 °FClear.10 mph76%30.04 "Hg10 mi
5:20 AM46 °FClear.13 mph71%30.04 "Hg10 mi
4:50 AM46 °FClear.12 mph71%30.07 "Hg10 mi
4:20 AM45 °FClear.9 mph81%30.07 "Hg10 mi
3:50 AM45 °FClear.10 mph81%30.07 "Hg10 mi
3:20 AM46 °FClear.10 mph82%30.07 "Hg10 mi
2:20 AM45 °FClear.9 mph87%30.09 "Hg10 mi
1:50 AM46 °FPassing clouds.9 mph82%30.09 "HgN/A
1:20 AM46 °FClear.10 mph76%30.09 "Hg10 mi
12:50 AM46 °FClear.10 mph82%30.12 "Hg10 mi
12:20 AM46 °FClear.8 mph82%30.12 "Hg10 mi
11:20 PM
Tue, Feb 9
45 °FClear.6 mph81%30.15 "Hg10 mi
10:50 PM45 °FClear.2 mph87%30.15 "Hg10 mi
10:20 PM45 °FPassing clouds.5 mph81%30.15 "HgN/A
9:50 PM46 °FClear.5 mph82%30.15 "Hg10 mi
9:20 PM45 °FClear.6 mph81%30.15 "Hg10 mi
8:50 PM46 °FPassing clouds.7 mph76%30.15 "HgN/A
8:20 PM46 °FClear.7 mph76%30.18 "Hg10 mi
7:50 PM46 °FPassing clouds.5 mph82%30.18 "HgN/A
7:20 PM46 °FPassing clouds.3 mph76%30.18 "HgN/A
6:50 PM46 °FPassing clouds.3 mph76%30.18 "HgN/A
6:20 PM46 °FClear.6 mph76%30.18 "Hg10 mi
5:20 PM48 °FPassing clouds.7 mph66%30.18 "HgN/A
4:50 PM48 °FPassing clouds.9 mph66%30.18 "HgN/A
4:20 PM48 °FSunny.8 mph66%30.21 "Hg10 mi
Weather by CustomWeather, © 2016

See weather overviewHow to use our weather pages